Simultaneous Nadir Overpasses (SNOs) Predictions

Prediction of SNOs between LANDSAT-8 and METOP-A Satellite Orbit:

Table of predicted SNOs for the next 14.0 days since TLE Epoch: 8/21/2016
Index Date (LANDSAT-8) Time (LANDSAT-8) Lat,Lon (LANDSAT-8) SZA (LANDSAT-8 ) Date (METOP-A) Time (METOP-A) Lat,Lon (METOP-A) SZA (METOP-A ) Distance(km) Time Diff (sec)
1 08/23/2016 18:26:36 81.18, -55.67 72.21 08/23/2016 18:25:45 81.18, -55.58 72.20 1.61 51
2 08/23/2016 19:16:02 -81.20, 112.28 107.73 08/23/2016 19:16:25 -81.20, 112.21 107.73 1.26 23
3 08/26/2016 14:00:52 81.19, 10.89 73.22 08/26/2016 14:00:06 81.18, 10.76 73.18 2.45 46
4 08/26/2016 14:50:18 -81.21, 178.87 106.72 08/26/2016 14:50:45 -81.21, 178.93 106.71 1.12 27
5 08/29/2016 09:35:09 81.17, 77.05 74.19 08/29/2016 09:34:27 81.18, 77.08 74.18 0.87 42
6 08/29/2016 10:24:35 -81.20,-114.95 105.75 08/29/2016 10:25:07 -81.19,-115.13 105.75 3.12 32
7 09/01/2016 05:09:24 81.18, 143.53 75.23 09/01/2016 05:08:47 81.18, 143.38 75.20 2.58 37
8 09/01/2016 05:58:50 -81.20, -48.44 104.70 09/01/2016 05:59:26 -81.20, -48.45 104.69 0.22 36
9 09/04/2016 00:43:40 81.18,-150.02 76.28 09/04/2016 00:43:07 81.18,-149.96 76.28 1.39 33




NCC Satellite Simultaneous Nadir Overpasses (SNOs) Prediction Service
